This demonstration page uses our WeatherBlox Daily Observations layout. Learn more.

Left ArrowRight Arrow

Hourly Observations for August 11, 2017

Temp ( °F °C ) Dew Point ( °F °C ) Humidity (%) Winds ( mph kmh ) Pressure ( in mb ) Visibility ( mi km ) Precip ( " mm )
12:30 am 00:30 Mostly Clear with Nearby Thunderstorms 76 24.4 71 21.7 85 85 S 9 15 29.97 1015 10 16 0.00 0.00
12:45 am 00:45 Mostly Clear 75 23.9 71 21.7 88 88 S 8 13 29.97 1015 10 16 0.00 0.00
12:52 am 00:52 Partly Cloudy 75 23.9 71 21.7 88 88 SSW 8 13 30.01 1016 10 16 0.00 0.00
12:59 am 00:59 Partly Cloudy with Nearby Thunderstorms 75 23.9 72 22.2 90 90 SSW 7 11 29.97 1015 10 16 0.00 0.00
1:37 am 01:37 Cloudy with Strong Thunderstorms 73 22.8 70 21.1 90 90 W 17 28 30.03 1017 3 4 0.06 1.52
1:44 am 01:44 Cloudy with Strong Thunderstorms 72 22.2 68 20 87 87 S 6 9 30.03 1017 1 2 0.31 7.87
1:52 am 01:52 Cloudy with Strong Thunderstorms 71 21.7 70 21.1 96 96 SSW 7 11 30.01 1016 2 3 0.49 12.45
1:55 am 01:55 Cloudy with Thunderstorms 72 22.2 71 21.7 97 97 SW 9 15 30.03 1017 3 5 0.01 0.25
2:15 am 02:15 Cloudy with Nearby Thunderstorms 72 22.2 71 21.7 97 97 SSW 8 13 30.03 1017 10 16 0.02 0.51
2:37 am 02:37 Cloudy with Light Rain 71 21.7 68 20 90 90 S 3 6 30.00 1016 10 16 0.03 0.76
2:52 am 02:52 Mostly Cloudy 71 21.7 68 20 90 90 Calm 29.99 1016 10 16 0.03 0.76
3:50 am 03:50 Cloudy with Thunderstorms 70 21 70 21 100 100 SSE 3 6 30.00 1016 10 16 0.00 0.03
3:52 am 03:52 Cloudy with Thunderstorms 70 21.1 69 20.6 97 97 SE 3 6 29.98 1015 10 16 0.00 0.03
4:05 am 04:05 Cloudy with Light Rain 71 21.7 69 20.6 94 94 SSE 3 6 30.00 1016 10 16 0.00 0.03
4:52 am 04:52 Mostly Clear 70 21.1 69 20.6 97 97 N 3 6 29.98 1015 10 16 0.00 0.03
5:52 am 05:52 Mostly Cloudy 70 21.1 70 21.1 100 100 E 3 6 29.99 1016 10 16 0.00 0.00
6:29 am 06:29 Cloudy 70 21.1 70 21.1 100 100 NE 5 7 30.00 1016 10 16 0.00 0.00
6:52 am 06:52 Cloudy 71 21.7 70 21.1 96 96 Calm 29.99 1016 10 16 0.00 0.00
7:43 am 07:43 Mostly Cloudy 71 21.7 70 21.1 96 96 SW 6 9 30.03 1017 10 16 0.00 0.00
7:52 am 07:52 Mostly Cloudy with Light Rain 71 21.7 70 21.1 96 96 Calm 30.03 1017 10 16 0.00 0.03
8:06 am 08:06 Cloudy with Light Rain 70 21.1 70 21.1 100 100 SSW 9 15 30.03 1017 6 10 0.01 0.25
8:12 am 08:12 Cloudy with Light Rain 70 21.1 70 21.1 100 100 S 5 7 30.03 1017 5 8 0.01 0.25
8:24 am 08:24 Cloudy with Light Rain 70 21.1 70 21.1 100 100 SW 5 7 30.03 1017 4 6 0.03 0.76
8:44 am 08:44 Cloudy with Rain 70 21.1 70 21.1 100 100 SW 6 9 30.03 1017 3 4 0.08 2.03
8:52 am 08:52 Cloudy with Heavy Rain 71 21.7 71 21.7 100 100 WSW 5 7 30.03 1017 2 3 0.10 2.54
9:11 am 09:11 Cloudy with Heavy Rain 71 21.7 71 21.7 100 100 WSW 10 17 30.06 1018 1 2 0.17 4.32
9:18 am 09:18 Cloudy with Rain 71 21.7 71 21.7 100 100 WSW 9 15 30.06 1018 3 5 0.19 4.83
9:41 am 09:41 Mostly Cloudy with Light Rain 71 21.7 70 21.1 96 96 WSW 10 17 30.06 1018 7 11 0.22 5.59
9:52 am 09:52 Mostly Cloudy with Light Rain 71 21.7 70 21.1 96 96 WSW 8 13 30.05 1018 7 11 0.23 5.84
10:52 am 10:52 Cloudy with Light Rain 73 22.8 70 21.1 90 90 NW 7 11 30.03 1017 10 16 0.04 1.02
11:52 am 11:52 Partly Cloudy with Light Rain 76 24.4 71 21.7 85 85 N 8 13 30.01 1016 10 16 0.00 0.03
12:52 pm 12:52 Mostly Cloudy 78 25.6 70 21.1 76 76 NNW 14 22 30.00 1016 10 16 0.00 0.03
1:45 pm 13:45 Cloudy 78 25.6 72 22.2 82 82 N 10 17 29.97 1015 10 16 0.00 0.00
1:52 pm 13:52 Cloudy 79 26.1 72 22.2 79 79 N 10 17 29.98 1015 10 16 0.00 0.00
2:52 pm 14:52 Mostly Cloudy 80 26.7 72 22.2 76 76 N 9 15 29.99 1016 10 16 0.00 0.00
3:52 pm 15:52 Cloudy 81 27.2 72 22.2 74 74 N 13 20 29.98 1015 10 16 0.00 0.00
4:52 pm 16:52 Mostly Sunny 81 27.2 71 21.7 72 72 NNE 12 19 29.97 1015 10 16 0.00 0.00
5:52 pm 17:52 Cloudy with Light Rain 77 25 73 22.8 88 88 NE 7 11 29.98 1015 8 13 0.00 0.03
6:52 pm 18:52 Partly Cloudy 78 25.6 72 22.2 82 82 NE 6 9 29.98 1015 10 16 0.00 0.03
7:52 pm 19:52 Mostly Sunny 76 24.4 71 21.7 85 85 NNE 6 9 29.99 1016 10 16 0.00 0.00
8:52 pm 20:52 Cloudy 75 23.9 72 22.2 90 90 N 7 11 30.00 1016 10 16 0.00 0.03
9:52 pm 21:52 Mostly Cloudy 73 22.8 70 21.1 90 90 NNE 5 7 30.01 1016 10 16 0.00 0.00
10:52 pm 22:52 Mostly Clear 71 21.7 69 20.6 94 94 Calm 30.03 1017 10 16 0.00 0.00
11:52 pm 23:52 Clear 69 20.6 68 20 96 96 NNW 5 7 30.02 1017 8 13 0.00 0.00

Powered by AerisWeather